Location: Bjelajci
(45.0103°N, 16.1758°E)
Time: 09:54:34
(UTC+00:00)

Abrixas rocket - Pass Details

Date: 14 July 2020
Orbit: 339 x 347 km, 48.4° (Epoch: 07 August)

Event Time Altitude Azimuth Distance (km) Brightness Sun altitude
Exits shadow 01:34:31 - 291° (WNW) 1,623 5.1 -14.8°
Reaches altitude 10° 01:35:20 10° 292° (WNW) 1,284 4.6 -14.7°
Maximum altitude 01:38:12 77° 18° (NNE) 352 1.9 -14.4°
Drops below altitude 10° 01:41:03 10° 106° (ESE) 1,279 5.0 -14.1°
Sets 01:43:03 0° 108° (ESE) 2,116 6.1 -13.9°
